• In Belarus
  • List of Countries
  • For 7 days
  • Water Temperature
  • Satellite Maps
  • Weather Map
  • Weather Widgets
  • user-avatar
    Login

    Hourly Weather Andora

    Today, 17 December, Monday

    Time Temperature Precipitation Wind Pressure Humidity
    00:00 -5°C° 0 mm 3 mps 624 mmHg 87%
    01:00 -5°C° 0 mm 3 mps 624 mmHg 86%
    02:00 -5°C° 0 mm 3 mps 624 mmHg 85%
    03:00 -5°C° 0 mm 3 mps 624 mmHg 84%
    04:00 -5°C° 0 mm 3 mps 625 mmHg 83%
    05:00 -5°C° 0 mm 3 mps 625 mmHg 83%
    06:00 -5°C° 0 mm 3 mps 626 mmHg 82%
    07:00 -4°C° 0 mm 3 mps 626 mmHg 80%
    08:00 -4°C° 0 mm 3 mps 627 mmHg 78%
    09:00 -2°C° 0 mm 3 mps 628 mmHg 76%
    10:00 -1°C° 0 mm 2 mps 629 mmHg 71%
    11:00 +2°C° 0 mm 2 mps 629 mmHg 65%
    12:00 +3°C° 0 mm 2 mps 630 mmHg 60%
    13:00 +4°C° 0 mm 1 mps 630 mmHg 62%
    14:00 +4°C° 0 mm 1 mps 630 mmHg 63%
    15:00 +4°C° 0 mm 1 mps 630 mmHg 65%
    16:00 +2°C° 0 mm 1 mps 629 mmHg 69%
    17:00 +1°C° 0 mm 1 mps 629 mmHg 72%
    18:00 -1°C° 0 mm 1 mps 628 mmHg 76%
    19:00 -1°C° 0 mm 1 mps 628 mmHg 74%
    20:00 -1°C° 0 mm 1 mps 628 mmHg 72%
    21:00 -1°C° 0 mm 1 mps 628 mmHg 71%
    22:00 -1°C° 0 mm 1 mps 628 mmHg 72%
    23:00 -1°C° 0 mm 1 mps 628 mmHg 73%

    Tomorrow, 18 December, Tuesday

    Time Temperature Precipitation Wind Pressure Humidity
    00:00 -1°C° 0 mm 1 mps 627 mmHg 75%
    01:00 -1°C° 0 mm 1 mps 627 mmHg 73%
    02:00 -2°C° 0 mm 1 mps 627 mmHg 72%
    03:00 -2°C° 0 mm 1 mps 626 mmHg 70%
    04:00 -3°C° 0 mm 2 mps 626 mmHg 68%
    05:00 -3°C° 0 mm 2 mps 626 mmHg 66%
    06:00 -3°C° 0 mm 2 mps 625 mmHg 64%
    07:00 -2°C° 0 mm 2 mps 625 mmHg 60%
    08:00 -1°C° 0 mm 2 mps 626 mmHg 56%
    09:00 +1°C° 0 mm 2 mps 626 mmHg 53%
    10:00 +2°C° 0 mm 2 mps 626 mmHg 51%
    11:00 +4°C° 0 mm 2 mps 626 mmHg 49%
    12:00 +4°C° 0 mm 3 mps 626 mmHg 46%
    13:00 +4°C° 0 mm 3 mps 626 mmHg 48%
    14:00 +4°C° 0 mm 2 mps 625 mmHg 50%
    15:00 +4°C° 0 mm 2 mps 624 mmHg 52%
    16:00 +2°C° 0 mm 2 mps 624 mmHg 54%
    17:00 +1°C° 0 mm 2 mps 624 mmHg 55%
    18:00 -1°C° 0 mm 2 mps 623 mmHg 57%
    19:00 -1°C° 0 mm 2 mps 623 mmHg 57%
    20:00 -1°C° 0 mm 2 mps 623 mmHg 58%
    21:00 -1°C° 0 mm 2 mps 623 mmHg 58%
    22:00 +1°C° 0 mm 1 mps 623 mmHg 61%
    23:00 +1°C° 0 mm 1 mps 623 mmHg 63%

    Day after tomorrow, 19 December, Wednesday

    Time Temperature Precipitation Wind Pressure Humidity
    00:00 +1°C° 0 mm 1 mps 623 mmHg 65%
    01:00 +1°C° 0 mm 1 mps 623 mmHg 67%
    02:00 0°C° 0 mm 1 mps 623 mmHg 69%
    03:00 0°C° 0 mm 1 mps 622 mmHg 71%
    04:00 0°C° 0 mm 1 mps 622 mmHg 73%
    05:00 -1°C° 0 mm 1 mps 622 mmHg 75%
    06:00 -1°C° 0 mm 1 mps 622 mmHg 77%
    07:00 0°C° 0 mm 1 mps 623 mmHg 75%
    08:00 +1°C° 0 mm 1 mps 623 mmHg 73%
    09:00 +1°C° 0 mm 0 mps 624 mmHg 71%
    10:00 +3°C° 0 mm 1 mps 624 mmHg 67%
    11:00 +4°C° 0 mm 1 mps 624 mmHg 63%
    12:00 +5°C° 0 mm 1 mps 624 mmHg 58%
    13:00 +4°C° 0 mm 1 mps 624 mmHg 61%
    14:00 +4°C° 0 mm 1 mps 624 mmHg 64%
    15:00 +3°C° 0 mm 1 mps 624 mmHg 66%
    16:00 +2°C° 0.2 mm 1 mps 623 mmHg 72%
    17:00 +1°C° 0.2 mm 1 mps 623 mmHg 78%
    18:00 -2°C° 0.2 mm 2 mps 623 mmHg 85%
    19:00 -3°C° 0 mm 2 mps 624 mmHg 85%
    20:00 -3°C° 0 mm 2 mps 624 mmHg 86%
    21:00 -3°C° 0 mm 2 mps 624 mmHg 86%
    22:00 -4°C° 0 mm 2 mps 624 mmHg 84%
    23:00 -4°C° 0 mm 2 mps 624 mmHg 82%

    20 December, Thursday

    Time Temperature Precipitation Wind Pressure Humidity
    00:00 -5°C° 0 mm 2 mps 624 mmHg 80%
    01:00 -5°C° 0 mm 2 mps 624 mmHg 78%
    02:00 -5°C° 0 mm 2 mps 624 mmHg 77%
    03:00 -5°C° 0 mm 2 mps 625 mmHg 75%
    04:00 -5°C° 0 mm 2 mps 625 mmHg 75%
    05:00 -5°C° 0 mm 2 mps 625 mmHg 75%
    06:00 -5°C° 0 mm 2 mps 625 mmHg 75%
    07:00 -4°C° 0 mm 2 mps 626 mmHg 73%
    08:00 -1°C° 0 mm 1 mps 627 mmHg 70%
    09:00 0°C° 0 mm 1 mps 627 mmHg 67%
    10:00 +1°C° 0 mm 1 mps 628 mmHg 63%
    11:00 +3°C° 0 mm 1 mps 628 mmHg 59%
    12:00 +4°C° 0 mm 1 mps 629 mmHg 54%
    13:00 +4°C° 0 mm 1 mps 629 mmHg 57%
    14:00 +3°C° 0 mm 1 mps 628 mmHg 60%
    15:00 +3°C° 0 mm 1 mps 628 mmHg 63%
    16:00 +1°C° 0 mm 1 mps 628 mmHg 69%
    17:00 0°C° 0 mm 1 mps 627 mmHg 76%
    18:00 -2°C° 0 mm 1 mps 627 mmHg 82%
    19:00 -2°C° 0 mm 1 mps 627 mmHg 80%
    20:00 -2°C° 0 mm 1 mps 628 mmHg 79%
    21:00 -2°C° 0 mm 1 mps 628 mmHg 77%
    22:00 -2°C° 0 mm 1 mps 628 mmHg 74%
    23:00 -2°C° 0 mm 1 mps 628 mmHg 72%

    21 December, Friday

    Time Temperature Precipitation Wind Pressure Humidity
    00:00 -2°C° 0 mm 1 mps 627 mmHg 70%
    01:00 -2°C° 0 mm 1 mps 627 mmHg 70%
    02:00 -2°C° 0 mm 1 mps 627 mmHg 70%
    03:00 -2°C° 0 mm 1 mps 627 mmHg 69%
    04:00 -2°C° 0 mm 1 mps 627 mmHg 68%
    05:00 -1°C° 0 mm 1 mps 627 mmHg 66%
    06:00 -1°C° 0 mm 1 mps 627 mmHg 64%
    07:00 0°C° 0 mm 1 mps 627 mmHg 60%
    08:00 +2°C° 0 mm 1 mps 628 mmHg 56%
    09:00 +3°C° 0 mm 1 mps 629 mmHg 51%
    10:00 +4°C° 0 mm 1 mps 629 mmHg 50%
    11:00 +6°C° 0 mm 1 mps 630 mmHg 49%
    12:00 +8°C° 0 mm 1 mps 630 mmHg 48%
    13:00 +7°C° 0 mm 1 mps 630 mmHg 54%
    14:00 +7°C° 0 mm 1 mps 630 mmHg 59%
    15:00 +7°C° 0 mm 1 mps 630 mmHg 65%
    16:00 +6°C° 0.1 mm 1 mps 630 mmHg 70%
    17:00 +5°C° 0.1 mm 1 mps 630 mmHg 75%
    18:00 +4°C° 0.1 mm 1 mps 630 mmHg 80%
    19:00 +4°C° 0.4 mm 1 mps 630 mmHg 81%
    20:00 +5°C° 0.4 mm 1 mps 630 mmHg 83%
    21:00 +5°C° 0.4 mm 1 mps 631 mmHg 84%
    22:00 +5°C° 0 mm 1 mps 631 mmHg 85%
    23:00 +5°C° 0 mm 1 mps 630 mmHg 86%

    22 December, Saturday

    Time Temperature Precipitation Wind Pressure Humidity
    00:00 +4°C° 0 mm 1 mps 630 mmHg 88%
    01:00 +4°C° 0 mm 1 mps 630 mmHg 87%
    02:00 +4°C° 0 mm 1 mps 630 mmHg 87%
    03:00 +4°C° 0 mm 1 mps 630 mmHg 87%
    04:00 +4°C° 0 mm 1 mps 630 mmHg 86%
    05:00 +4°C° 0 mm 1 mps 630 mmHg 86%
    06:00 +4°C° 0 mm 1 mps 630 mmHg 85%
    07:00 +5°C° 0 mm 1 mps 631 mmHg 83%
    08:00 +5°C° 0 mm 1 mps 631 mmHg 81%
    09:00 +6°C° 0 mm 1 mps 632 mmHg 79%
    10:00 +8°C° 0 mm 1 mps 632 mmHg 75%
    11:00 +9°C° 0 mm 1 mps 633 mmHg 72%
    12:00 +10°C° 0 mm 1 mps 633 mmHg 68%
    13:00 +10°C° 0 mm 1 mps 633 mmHg 71%
    14:00 +9°C° 0 mm 1 mps 632 mmHg 75%
    15:00 +9°C° 0 mm 1 mps 632 mmHg 78%
    16:00 +7°C° 0 mm 1 mps 632 mmHg 82%
    17:00 +6°C° 0 mm 1 mps 631 mmHg 86%
    18:00 +5°C° 0 mm 1 mps 631 mmHg 91%
    19:00 +5°C° 0 mm 1 mps 631 mmHg 90%
    20:00 +5°C° 0 mm 1 mps 631 mmHg 90%
    21:00 +4°C° 0 mm 1 mps 632 mmHg 89%
    22:00 +4°C° 0 mm 1 mps 631 mmHg 89%
    23:00 +4°C° 0 mm 1 mps 631 mmHg 88%
    Show more